Flag for Brazil Weather past 2 weeks in Niterói, Rio de Janeiro, Brazil

73 °F

Drizzle. Fog.

Feels Like: 70 °F
Forecast: 73 / 79 °F
Wind: 8 mph from Southwest

Location: Rio De Janeiro Airport

Current Time: Nov 30, 2015 at 5:32:41 PM

Latest Report: Nov 30, 2015 at 5:00 PM

Visibility: 2 mi

Pressure: N/A

Humidity: 94%

Dew point: 72 °F

Location of NiteróiLocation

Historic Weather in Niterói — Graph


Niterói temperature yesterday

Maximum temperature yesterday: 84 °F (at 11:00 AM)
Minimum temperature yesterday: 75 °F (at 12:00 AM)
Average temperature yesterday: 78 °F

Past Weeks' High & Low Weather Summary

High91 °F (Nov 19, 12:00 PM)100% (Nov 18, 11:00 PM)30.18 "Hg (Nov 18, 11:00 PM)
Low68 °F (Nov 21, 10:00 AM)56% (Nov 20, 3:00 PM)29.56 "Hg (Nov 20, 2:00 PM)
Average77 °F86%29.82 "Hg
* Reported Nov 15 4:00 PM — Nov 30 4:00 PM, Niterói, Weather by CustomWeather, © 2015

Note: Actual official high and low records may vary slightly from our data, if they occured in-between our weather recording intervals... More about our weather records


Niterói weather history for previous 24 hours

Time TempWeatherWind HumidityBarometerVisibility
4:00 PM
Mon, Nov 30
73 °FFog.15 mph94%29.98 "Hg3 mi
3:00 PM75 °FDrizzle. Fog.17 mph94%N/A3 mi
2:00 PM75 °FDrizzle. Fog.15 mph94%N/A3 mi
1:00 PM77 °FFog.14 mph89%29.98 "Hg3 mi
12:00 PM77 °FLight rain. Fog.7 mph94%N/A3 mi
11:00 AM77 °FFog.6 mph94%30.01 "Hg3 mi
10:00 AM75 °FFog.3 mph100%30.01 "Hg1 mi
9:00 AM73 °FFog.1 mph100%29.98 "Hg1 mi
8:00 AM73 °FDrizzle. Mostly cloudy.1 mph100%29.98 "Hg1 mi
7:00 AM73 °FDrizzle. Fog.2 mph100%29.95 "Hg2 mi
6:00 AM73 °FCloudy.5 mph94%29.92 "Hg4 mi
5:00 AM75 °FOvercast.9 mph94%30.18 "Hg6 mi
4:00 AM75 °FLight rain. Overcast.9 mph94%29.92 "Hg6 mi
3:00 AM75 °FLight rain. Mostly cloudy.6 mph100%29.92 "Hg4 mi
2:00 AM75 °FMostly cloudy.7 mph94%29.95 "HgN/A
1:00 AM75 °FMostly cloudy.6 mph100%29.95 "HgN/A
12:00 AM75 °FMostly cloudy.5 mph94%29.95 "HgN/A
10:00 PM
Sun, Nov 29
77 °FLight rain. Partly cloudy.5 mph94%29.95 "Hg6 mi
9:00 PM75 °FLight rain. Mostly cloudy.2 mph100%29.92 "Hg5 mi
8:00 PM75 °FLight rain. Fog.2 mph100%29.92 "Hg3 mi
7:00 PM77 °FThunderstorms. Fog.No wind94%29.92 "Hg3 mi
6:00 PM75 °FLight rain. Fog.5 mph100%29.89 "Hg3 mi
5:00 PM75 °FThunderstorms. Fog.3 mph100%29.86 "Hg2 mi
Weather by CustomWeather, © 2015

See weather overviewHow to use our weather pages